TCA7378 SVBC-TTCP

Flight info

Callsign TCA7378
Flight time 0h 45m
Altitude 37000
Route 101451N0643753W 102713N0641034W DCT 102846N0633811W 103054N0625923W DCT 103144N0621938W 104024N0614939W DCT 104850N0612144W
Aircraft C25B/M-SDE2E3FGHRWXY/LB1

Departure

Time 2026-05-07 20:59
Airport General José Antonio Anzoategui International Airport (SVBC)

Arrival

Time 2026-05-07 21:45
Airport A.N.R. Robinson International Airport (TTCP)
Time Latitude Longitude Altitude Speed Heading
2026-05-07 20:50 10.10758 -64.68674 34 ft 0 kts 352°
2026-05-07 20:57 10.10774 -64.68687 34 ft 5 kts 279°
2026-05-07 20:57 10.10768 -64.68715 34 ft 7 kts 250°
2026-05-07 20:57 10.10724 -64.68774 34 ft 7 kts 217°
2026-05-07 20:57 10.10688 -64.68789 33 ft 7 kts 205°
2026-05-07 20:58 10.10676 -64.68881 31 ft 17 kts 265°
2026-05-07 20:58 10.10635 -64.68940 32 ft 17 kts 197°
2026-05-07 20:58 10.10515 -64.68967 31 ft 19 kts 192°
2026-05-07 20:58 10.10382 -64.68997 31 ft 20 kts 192°
2026-05-07 20:59 10.10194 -64.69023 33 ft 21 kts 181°
2026-05-07 20:59 10.10179 -64.69042 33 ft 10 kts 15°
2026-05-07 20:59 10.10520 -64.68965 31 ft 108 kts 12°
2026-05-07 20:59 10.11501 -64.68752 653 ft 166 kts 15°
2026-05-07 21:00 10.12742 -64.68489 1891 ft 196 kts 16°
2026-05-07 21:00 10.13656 -64.68262 2771 ft 213 kts 16°
2026-05-07 21:00 10.15160 -64.67909 3968 ft 227 kts 17°
2026-05-07 21:00 10.16660 -64.67365 5212 ft 233 kts 24°
2026-05-07 21:01 10.18193 -64.66744 6412 ft 241 kts 23°
2026-05-07 21:01 10.19778 -64.66121 7625 ft 247 kts 22°
2026-05-07 21:01 10.21937 -64.65278 9160 ft 255 kts 22°
2026-05-07 21:01 10.23045 -64.64850 9906 ft 259 kts 22°
2026-05-07 21:02 10.25303 -64.63964 11495 ft 260 kts 23°
2026-05-07 21:02 10.26424 -64.63527 12265 ft 261 kts 23°
2026-05-07 21:02 10.28132 -64.62862 13378 ft 266 kts 23°
2026-05-07 21:02 10.29883 -64.62174 14374 ft 274 kts 22°
2026-05-07 21:03 10.31686 -64.61473 15343 ft 281 kts 22°
2026-05-07 21:03 10.33533 -64.60751 16306 ft 288 kts 21°
2026-05-07 21:03 10.35422 -64.60014 17237 ft 294 kts 22°
2026-05-07 21:03 10.37354 -64.59254 18121 ft 302 kts 21°
2026-05-07 21:04 10.39314 -64.58491 18976 ft 309 kts 21°
2026-05-07 21:04 10.41344 -64.57695 19836 ft 315 kts 20°
2026-05-07 21:04 10.43407 -64.56892 20701 ft 320 kts 19°
2026-05-07 21:04 10.45505 -64.56069 21511 ft 326 kts 19°
2026-05-07 21:05 10.47640 -64.55235 22306 ft 331 kts 18°
2026-05-07 21:05 10.49644 -64.54041 23005 ft 341 kts 39°
2026-05-07 21:05 10.51351 -64.52340 23747 ft 347 kts 44°
2026-05-07 21:05 10.52985 -64.50552 24444 ft 353 kts 46°
2026-05-07 21:06 10.54633 -64.48680 25134 ft 358 kts 46°
2026-05-07 21:06 10.56298 -64.46778 25838 ft 362 kts 47°
2026-05-07 21:06 10.57980 -64.44847 26506 ft 367 kts 47°
2026-05-07 21:06 10.59685 -64.42892 27175 ft 372 kts 47°
2026-05-07 21:07 10.61410 -64.40909 27816 ft 377 kts 47°
2026-05-07 21:07 10.63153 -64.38904 28453 ft 381 kts 47°
2026-05-07 21:07 10.64924 -64.36868 29084 ft 387 kts 47°
2026-05-07 21:07 10.66688 -64.34835 29716 ft 391 kts 47°
2026-05-07 21:08 10.68502 -64.32752 30313 ft 396 kts 47°
2026-05-07 21:08 10.70336 -64.30643 30928 ft 400 kts 47°
2026-05-07 21:08 10.72185 -64.28514 31539 ft 403 kts 47°
2026-05-07 21:08 10.74046 -64.26373 32123 ft 407 kts 47°
2026-05-07 21:09 10.75926 -64.24209 32684 ft 410 kts 47°
2026-05-07 21:09 10.77826 -64.22021 33229 ft 413 kts 47°
2026-05-07 21:09 10.79731 -64.19826 33746 ft 417 kts 47°
2026-05-07 21:09 10.81632 -64.17636 34236 ft 420 kts 47°
2026-05-07 21:10 10.83576 -64.15402 34710 ft 423 kts 46°
2026-05-07 21:10 10.85531 -64.13152 35161 ft 426 kts 47°
2026-05-07 21:10 10.87498 -64.10884 35592 ft 429 kts 46°
2026-05-07 21:10 10.89477 -64.08606 36127 ft 426 kts 46°
2026-05-07 21:11 10.91405 -64.06381 36981 ft 419 kts 46°
2026-05-07 21:11 10.93356 -64.04109 36999 ft 433 kts 49°
2026-05-07 21:11 10.96204 -63.98584 37002 ft 459 kts 73°
2026-05-07 21:12 10.96845 -63.95383 37003 ft 463 kts 85°
2026-05-07 21:12 10.97080 -63.92163 37013 ft 453 kts 88°
2026-05-07 21:12 10.97497 -63.85800 36955 ft 448 kts 87°
2026-05-07 21:13 10.97961 -63.79519 36934 ft 442 kts 88°
2026-05-07 21:13 10.98389 -63.73348 36932 ft 438 kts 88°
2026-05-07 21:14 10.98827 -63.67191 36924 ft 435 kts 88°
2026-05-07 21:14 10.99255 -63.61065 36916 ft 433 kts 88°
2026-05-07 21:15 10.99684 -63.54969 36929 ft 431 kts 88°
2026-05-07 21:15 11.00106 -63.48934 36929 ft 430 kts 88°
2026-05-07 21:16 11.00527 -63.42869 36929 ft 430 kts 88°
2026-05-07 21:16 11.00948 -63.36799 36929 ft 430 kts 88°
2026-05-07 21:17 11.01369 -63.30733 36931 ft 430 kts 88°
2026-05-07 21:17 11.01784 -63.24707 36930 ft 430 kts 88°
2026-05-07 21:18 11.02201 -63.18649 36930 ft 430 kts 88°
2026-05-07 21:18 11.02618 -63.12583 36930 ft 429 kts 88°
2026-05-07 21:19 11.03031 -63.06526 36938 ft 429 kts 88°
2026-05-07 21:19 11.03445 -63.00506 36938 ft 429 kts 89°
2026-05-07 21:20 11.03854 -62.94443 36938 ft 429 kts 89°
2026-05-07 21:20 11.04266 -62.88377 36939 ft 429 kts 89°
2026-05-07 21:21 11.04676 -62.82316 36939 ft 430 kts 89°
2026-05-07 21:21 11.04882 -62.79271 36706 ft 435 kts 89°
2026-05-07 21:21 11.05087 -62.76151 36134 ft 446 kts 88°
2026-05-07 21:22 11.05300 -62.73072 35560 ft 438 kts 88°
2026-05-07 21:22 11.05510 -62.70003 34982 ft 431 kts 88°
2026-05-07 21:22 11.05708 -62.66979 34412 ft 425 kts 89°
2026-05-07 21:22 11.05905 -62.63994 33850 ft 420 kts 88°
2026-05-07 21:23 11.06105 -62.61043 33295 ft 416 kts 88°
2026-05-07 21:23 11.06303 -62.58123 32746 ft 411 kts 89°
2026-05-07 21:23 11.06491 -62.55230 32199 ft 408 kts 88°
2026-05-07 21:23 11.06685 -62.52368 31657 ft 404 kts 88°
2026-05-07 21:24 11.06871 -62.49526 31129 ft 400 kts 88°
2026-05-07 21:24 11.07059 -62.46747 30600 ft 397 kts 88°
2026-05-07 21:24 11.07242 -62.43953 30081 ft 394 kts 88°
2026-05-07 21:24 11.07424 -62.41181 29559 ft 391 kts 88°
2026-05-07 21:25 11.07609 -62.38432 29047 ft 388 kts 88°
2026-05-07 21:25 11.07786 -62.35705 28537 ft 384 kts 88°
2026-05-07 21:25 11.07966 -62.33000 28029 ft 382 kts 88°
2026-05-07 21:25 11.08138 -62.30316 27523 ft 378 kts 88°
2026-05-07 21:26 11.08317 -62.27688 27029 ft 376 kts 88°
2026-05-07 21:26 11.08492 -62.25045 26531 ft 373 kts 88°
2026-05-07 21:26 11.08659 -62.22428 26035 ft 370 kts 88°
2026-05-07 21:26 11.08832 -62.19825 25548 ft 367 kts 88°
2026-05-07 21:27 11.09000 -62.17244 25062 ft 364 kts 88°
2026-05-07 21:27 11.09167 -62.14682 24574 ft 361 kts 88°
2026-05-07 21:27 11.09332 -62.12146 24102 ft 358 kts 87°
2026-05-07 21:27 11.09499 -62.09624 23626 ft 356 kts 88°
2026-05-07 21:28 11.09661 -62.07120 23155 ft 353 kts 88°
2026-05-07 21:28 11.09817 -62.04670 22693 ft 350 kts 87°
2026-05-07 21:28 11.09978 -62.02208 22229 ft 347 kts 87°
2026-05-07 21:28 11.10142 -61.99767 21770 ft 344 kts 87°
2026-05-07 21:29 11.10297 -61.97345 21313 ft 341 kts 87°
2026-05-07 21:29 11.10448 -61.94944 20862 ft 338 kts 87°
2026-05-07 21:29 11.10601 -61.92563 20413 ft 336 kts 87°
2026-05-07 21:29 11.10756 -61.90201 19968 ft 333 kts 87°
2026-05-07 21:30 11.10906 -61.87861 19533 ft 331 kts 87°
2026-05-07 21:30 11.11057 -61.85532 19088 ft 328 kts 87°
2026-05-07 21:30 11.11202 -61.83251 18659 ft 326 kts 86°
2026-05-07 21:30 11.11353 -61.80959 18226 ft 323 kts 87°
2026-05-07 21:31 11.11495 -61.78685 17798 ft 321 kts 87°
2026-05-07 21:31 11.11639 -61.76429 17373 ft 318 kts 86°
2026-05-07 21:31 11.11783 -61.74193 16951 ft 315 kts 86°
2026-05-07 21:31 11.11924 -61.71974 16533 ft 313 kts 86°
2026-05-07 21:32 11.12067 -61.69774 16118 ft 310 kts 86°
2026-05-07 21:32 11.12205 -61.67619 15711 ft 308 kts 86°
2026-05-07 21:32 11.12338 -61.65459 15316 ft 305 kts 86°
2026-05-07 21:32 11.12477 -61.63313 14899 ft 302 kts 85°
2026-05-07 21:33 11.12614 -61.61180 14497 ft 300 kts 86°
2026-05-07 21:33 11.12742 -61.59070 14099 ft 297 kts 85°
2026-05-07 21:33 11.12881 -61.56983 13706 ft 295 kts 85°
2026-05-07 21:33 11.13011 -61.54909 13319 ft 292 kts 85°
2026-05-07 21:34 11.13139 -61.52851 12925 ft 290 kts 85°
2026-05-07 21:34 11.13266 -61.50836 12546 ft 288 kts 85°
2026-05-07 21:34 11.13396 -61.48812 12165 ft 285 kts 85°
2026-05-07 21:34 11.13520 -61.46803 11786 ft 283 kts 85°
2026-05-07 21:35 11.13652 -61.44811 11410 ft 281 kts 85°
2026-05-07 21:35 11.13767 -61.42831 11036 ft 279 kts 85°
2026-05-07 21:35 11.13896 -61.40866 10667 ft 277 kts 85°
2026-05-07 21:35 11.14015 -61.38937 10305 ft 266 kts 85°
2026-05-07 21:36 11.14130 -61.37099 9956 ft 255 kts 85°
2026-05-07 21:36 11.14241 -61.35334 9621 ft 245 kts 85°
2026-05-07 21:36 11.14349 -61.33607 9296 ft 246 kts 85°
2026-05-07 21:36 11.14461 -61.31882 8978 ft 250 kts 85°
2026-05-07 21:37 11.14568 -61.30103 8641 ft 253 kts 85°
2026-05-07 21:37 11.14685 -61.28304 8305 ft 256 kts 85°
2026-05-07 21:37 11.14793 -61.26487 7964 ft 257 kts 85°
2026-05-07 21:37 11.14912 -61.24665 7628 ft 258 kts 85°
2026-05-07 21:38 11.15018 -61.22839 7290 ft 258 kts 85°
2026-05-07 21:38 11.15139 -61.21011 6942 ft 259 kts 85°
2026-05-07 21:38 11.15252 -61.19182 6599 ft 259 kts 85°
2026-05-07 21:38 11.15360 -61.17382 6287 ft 258 kts 85°
2026-05-07 21:39 11.15475 -61.15562 5951 ft 258 kts 85°
2026-05-07 21:39 11.15585 -61.13741 5610 ft 258 kts 85°
2026-05-07 21:39 11.15698 -61.11921 5267 ft 257 kts 85°
2026-05-07 21:39 11.15818 -61.10107 4925 ft 257 kts 85°
2026-05-07 21:40 11.15921 -61.08300 4585 ft 256 kts 85°
2026-05-07 21:40 11.16034 -61.06488 4246 ft 257 kts 85°
2026-05-07 21:40 11.16155 -61.04675 3901 ft 257 kts 85°
2026-05-07 21:40 11.16291 -61.02895 3572 ft 253 kts 84°
2026-05-07 21:41 11.16277 -61.01179 3249 ft 228 kts 93°
2026-05-07 21:41 11.16142 -60.99743 2976 ft 181 kts 92°
2026-05-07 21:41 11.16075 -60.98568 2751 ft 155 kts 91°
2026-05-07 21:41 11.15994 -60.97506 2551 ft 147 kts 93°
2026-05-07 21:42 11.15922 -60.96486 2362 ft 142 kts 91°
2026-05-07 21:42 11.15859 -60.95496 2180 ft 140 kts 93°
2026-05-07 21:42 11.15770 -60.94518 2000 ft 138 kts 92°
2026-05-07 21:42 11.15730 -60.93541 1819 ft 138 kts 92°
2026-05-07 21:43 11.15625 -60.92573 1638 ft 137 kts 94°
2026-05-07 21:43 11.15583 -60.91616 1461 ft 137 kts 91°
2026-05-07 21:43 11.15493 -60.90644 1282 ft 139 kts 95°
2026-05-07 21:43 11.15439 -60.89657 1097 ft 140 kts 91°
2026-05-07 21:44 11.15359 -60.88668 913 ft 141 kts 95°
2026-05-07 21:44 11.15289 -60.87694 750 ft 131 kts 92°
2026-05-07 21:44 11.15228 -60.86801 568 ft 123 kts 94°
2026-05-07 21:44 11.15161 -60.85963 405 ft 114 kts 92°
2026-05-07 21:45 11.15117 -60.85189 244 ft 107 kts 94°
2026-05-07 21:45 11.15061 -60.84444 61 ft 104 kts 94°
2026-05-07 21:45 11.15018 -60.83863 35 ft 30 kts 94°
2026-05-07 21:45 11.15059 -60.83823 35 ft 8 kts 314°
2026-05-07 21:46 11.15104 -60.83867 33 ft 11 kts 300°
2026-05-07 21:46 11.15116 -60.83950 33 ft 13 kts 274°
2026-05-07 21:46 11.15124 -60.84051 33 ft 15 kts 274°
2026-05-07 21:46 11.15133 -60.84141 33 ft 13 kts 296°
2026-05-07 21:47 11.15181 -60.84151 32 ft 0 kts